"read_dt","SO2 (ppb)","flags","PMT voltage (V)","lamp voltage (V)","lamp intensity (Hz)","internal temp (C)","react chamber temp (C)","sample flow (l/min)","pres (mmHg)","SO2 bkg (ppb)","SO2 coefficient"
2018-08-02 00:00:00,-3.138E-01,4C000000*,-703.0,964.597,90,27.5,45.1,0.407,735.4,2.2,1.050*
2018-08-02 00:01:00,-3.482E-01,4C000000*,-702.6,963.788,89,27.5,44.9,0.407,735.4,2.2,1.050*
2018-08-02 00:02:00,-2.211E-01,4C000000*,-702.6,964.192,90,27.5,44.9,0.406,735.7,2.2,1.050*
2018-08-02 00:03:00,-3.257E-01,4C000000*,-703.0,965.405,91,27.5,45.1,0.407,735.4,2.2,1.050*
2018-08-02 00:04:00,-3.021E-01,4C000000*,-702.6,962.979,90,27.5,44.9,0.407,735.4,2.2,1.050*
2018-08-02 00:05:00,-3.038E-01,4C000000*,-703.0,963.384,90,27.4,45.2,0.407,735.4,2.2,1.050*
2018-08-02 00:06:00,-3.202E-01,4C000000*,-702.6,964.192,90,27.4,44.8,0.407,735.7,2.2,1.050*
2018-08-02 00:07:00,-2.244E-01,4C000000*,-703.0,962.979,90,27.4,45.0,0.407,735.7,2.2,1.050*
2018-08-02 00:08:00,-3.005E-01,4C000000*,-702.6,964.192,90,27.4,44.9,0.407,735.4,2.2,1.050*
2018-08-02 00:09:00,-3.033E-01,4C000000*,-703.0,964.597,90,27.5,44.9,0.407,735.7,2.2,1.050*
2018-08-02 00:10:00,-3.343E-01,4C000000*,-703.0,964.597,90,27.5,45.1,0.406,735.4,2.2,1.050*
2018-08-02 00:11:00,-2.776E-01,4C000000*,-703.0,964.597,90,27.4,44.8,0.407,735.7,2.2,1.050*
2018-08-02 00:12:00,-3.087E-01,4C000000*,-703.0,963.788,90,27.6,45.1,0.407,735.7,2.2,1.050*
2018-08-02 00:13:00,-3.463E-01,4C000000*,-703.0,963.788,90,27.5,44.8,0.407,735.7,2.2,1.050*
2018-08-02 00:14:00,-3.564E-01,4C000000*,-702.6,964.597,90,27.5,44.9,0.407,735.7,2.2,1.050*
2018-08-02 00:15:00,-3.545E-01,4C000000*,-702.6,964.597,89,27.5,45.1,0.407,735.7,2.2,1.050*
2018-08-02 00:16:00,-2.388E-01,4C000000*,-703.0,963.788,89,27.4,44.8,0.406,735.7,2.2,1.050*
2018-08-02 00:17:00,-2.937E-01,4C000000*,-703.4,962.979,90,27.4,45.0,0.407,735.7,2.2,1.050*
2018-08-02 00:18:00,-3.601E-01,4C000000*,-703.0,963.384,89,27.5,45.1,0.407,735.7,2.2,1.050*
2018-08-02 00:19:00,-3.675E-01,4C000000*,-702.6,963.384,89,27.5,44.8,0.407,735.7,2.2,1.050*
2018-08-02 00:20:00,-2.160E-01,4C000000*,-703.0,962.979,91,27.5,45.1,0.407,735.7,2.2,1.050*
2018-08-02 00:21:00,-3.714E-01,4C000000*,-702.3,963.788,91,27.5,44.9,0.407,735.7,2.2,1.050*
2018-08-02 00:22:00,-2.377E-01,4C000000*,-702.6,964.192,91,27.5,45.0,0.407,735.7,2.2,1.050*
2018-08-02 00:23:00,-3.154E-01,4C000000*,-702.6,963.788,89,27.6,45.0,0.407,735.7,2.2,1.050*
2018-08-02 00:24:00,-1.586E-01,4C000000*,-702.6,964.597,90,27.5,44.9,0.407,735.7,2.2,1.050*
2018-08-02 00:25:00,-2.564E-01,4C000000*,-703.0,963.788,89,27.6,45.1,0.407,735.7,2.2,1.050*
2018-08-02 00:26:00,-3.500E-01,4C000000*,-702.3,963.788,90,27.6,44.8,0.407,735.7,2.2,1.050*
2018-08-02 00:27:00,-2.830E-01,4C000000*,-703.0,963.384,90,27.4,44.9,0.407,735.7,2.2,1.050*
2018-08-02 00:28:00,-3.148E-01,4C000000*,-702.6,964.192,90,27.5,45.1,0.407,735.7,2.2,1.050*
2018-08-02 00:29:00,-3.979E-01,4C000000*,-703.0,965.001,90,27.5,44.8,0.407,735.7,2.2,1.050*
2018-08-02 00:30:00,-3.073E-01,4C000000*,-702.6,963.788,91,27.5,45.0,0.406,735.7,2.2,1.050*
2018-08-02 00:31:00,-3.030E-01,4C000000*,-702.6,964.192,90,27.5,45.1,0.407,735.4,2.2,1.050*
2018-08-02 00:32:00,-2.945E-01,4C000000*,-702.6,963.788,90,27.5,44.8,0.407,735.7,2.2,1.050*
2018-08-02 00:33:00,-3.480E-01,4C000000*,-703.0,963.788,88,27.5,45.2,0.407,735.7,2.2,1.050*
2018-08-02 00:34:00,-2.264E-01,4C000000*,-702.6,963.788,90,27.5,44.9,0.407,735.7,2.2,1.050*
2018-08-02 00:35:00,-3.374E-01,4C000000*,-702.6,964.597,91,27.5,44.8,0.407,735.7,2.2,1.050*
2018-08-02 00:36:00,-3.759E-01,4C000000*,-703.0,964.192,90,27.6,45.1,0.407,735.7,2.2,1.050*
2018-08-02 00:37:00,-2.991E-01,4C000000*,-702.6,964.597,90,27.5,44.9,0.407,735.7,2.2,1.050*
2018-08-02 00:38:00,-2.606E-01,4C000000*,-703.0,966.214,88,27.5,44.9,0.407,735.7,2.2,1.050*
2018-08-02 00:39:00,-2.749E-01,4C000000*,-703.4,963.788,90,27.5,45.1,0.407,735.7,2.2,1.050*
2018-08-02 00:40:00,-3.828E-01,4C000000*,-703.0,963.384,90,27.5,44.7,0.407,735.7,2.2,1.050*
2018-08-02 00:41:00,-2.955E-01,4C000000*,-703.0,963.384,90,27.6,45.0,0.406,735.7,2.2,1.050*
2018-08-02 00:42:00,-3.078E-01,4C000000*,-703.4,963.384,90,27.5,45.0,0.407,735.7,2.2,1.050*
2018-08-02 00:43:00,-2.695E-01,4C000000*,-703.4,964.597,89,27.6,44.8,0.407,735.7,2.2,1.050*
2018-08-02 00:44:00,-3.079E-01,4C000000*,-702.6,963.384,90,27.5,45.1,0.407,735.7,2.2,1.050*
2018-08-02 00:45:00,-2.896E-01,4C000000*,-703.0,964.192,90,27.6,45.0,0.407,735.4,2.2,1.050*
2018-08-02 00:46:00,-3.365E-01,4C000000*,-702.6,963.384,90,27.5,44.9,0.406,736.0,2.2,1.050*
2018-08-02 00:47:00,-3.336E-01,4C000000*,-703.4,964.597,89,27.5,45.1,0.407,735.7,2.2,1.050*
2018-08-02 00:48:00,-3.205E-01,4C000000*,-702.6,964.192,90,27.5,44.8,0.407,735.7,2.2,1.050*
2018-08-02 00:49:00,-2.784E-01,4C000000*,-703.0,963.384,89,27.5,45.1,0.407,736.0,2.2,1.050*
2018-08-02 00:50:00,-3.198E-01,4C000000*,-702.6,963.384,89,27.5,44.9,0.407,735.7,2.2,1.050*
2018-08-02 00:51:00,-3.589E-01,4C000000*,-702.6,964.597,89,27.5,45.0,0.407,736.0,2.2,1.050*
2018-08-02 00:52:00,-3.506E-01,4C000000*,-702.6,965.405,91,27.5,44.9,0.407,735.7,2.2,1.050*
2018-08-02 00:53:00,-2.649E-01,4C000000*,-703.0,965.001,89,27.5,44.9,0.407,735.7,2.2,1.050*
2018-08-02 00:54:00,-3.277E-01,4C000000*,-702.6,964.597,90,27.4,45.1,0.407,735.7,2.2,1.050*
2018-08-02 00:55:00,-2.407E-01,4C000000*,-702.6,964.192,90,27.5,44.8,0.407,735.7,2.2,1.050*
2018-08-02 00:56:00,-3.149E-01,4C000000*,-702.6,964.192,90,27.6,45.2,0.407,735.7,2.2,1.050*
2018-08-02 00:57:00,-2.765E-01,4C000000*,-703.0,963.384,88,27.5,44.8,0.407,735.7,2.2,1.050*
2018-08-02 00:58:00,-3.111E-01,4C000000*,-702.6,963.788,89,27.5,45.1,0.407,735.7,2.2,1.050*
2018-08-02 00:59:00,-2.971E-01,4C000000*,-703.4,964.597,89,27.5,44.9,0.407,735.7,2.2,1.050*
2018-08-02 01:00:00,-2.847E-01,4C000000*,-702.6,964.192,90,27.4,45.0,0.407,736.0,2.2,1.050*
2018-08-02 01:01:00,-3.327E-01,4C000000*,-702.6,963.788,90,27.5,45.2,0.407,735.7,2.2,1.050*
2018-08-02 01:02:00,-3.495E-01,4C000000*,-702.6,963.384,90,27.5,44.9,0.407,735.7,2.2,1.050*
2018-08-02 01:03:00,-3.420E-01,4C000000*,-702.6,963.788,90,27.5,45.1,0.407,735.7,2.2,1.050*
2018-08-02 01:04:00,-3.539E-01,4C000000*,-703.0,964.597,90,27.5,44.8,0.407,736.0,2.2,1.050*
2018-08-02 01:05:00,-2.938E-01,4C000000*,-702.6,964.192,91,27.4,45.1,0.407,736.0,2.2,1.050*
2018-08-02 01:06:00,-2.908E-01,4C000000*,-703.0,964.192,90,27.5,45.1,0.407,735.7,2.2,1.050*
2018-08-02 01:07:00,-2.835E-01,4C000000*,-703.0,963.384,90,27.6,44.8,0.407,736.0,2.2,1.050*
2018-08-02 01:08:00,-3.012E-01,4C000000*,-702.3,965.001,90,27.5,45.1,0.407,735.7,2.2,1.050*
2018-08-02 01:09:00,-3.219E-01,4C000000*,-703.0,964.597,89,27.4,44.9,0.407,735.7,2.2,1.050*
2018-08-02 01:10:00,-3.415E-01,4C000000*,-702.6,964.597,90,27.5,44.9,0.407,736.0,2.2,1.050*
2018-08-02 01:11:00,-2.030E-01,4C000000*,-702.6,965.001,90,27.5,45.2,0.407,735.7,2.2,1.050*
2018-08-02 01:12:00,-2.815E-01,4C000000*,-703.4,965.405,89,27.5,44.8,0.407,735.7,2.2,1.050*
2018-08-02 01:13:00,-2.549E-01,4C000000*,-702.3,963.788,89,27.5,44.9,0.407,735.7,2.2,1.050*
2018-08-02 01:14:00,-3.360E-01,4C000000*,-703.0,964.597,91,27.5,45.1,0.407,735.7,2.2,1.050*
2018-08-02 01:15:00,-3.352E-01,4C000000*,-702.6,965.001,89,27.5,44.7,0.407,735.7,2.2,1.050*
2018-08-02 01:16:00,-3.085E-01,4C000000*,-702.6,963.384,91,27.6,45.0,0.407,735.7,2.2,1.050*
2018-08-02 01:17:00,-3.007E-01,4C000000*,-703.4,964.192,91,27.5,45.0,0.407,736.0,2.2,1.050*
2018-08-02 01:18:00,-2.896E-01,4C000000*,-702.6,965.001,91,27.5,44.8,0.407,736.0,2.2,1.050*
2018-08-02 01:19:00,-2.540E-01,4C000000*,-703.4,964.192,90,27.6,45.2,0.407,736.0,2.2,1.050*
2018-08-02 01:20:00,-3.544E-01,4C000000*,-703.0,964.192,90,27.5,44.9,0.407,736.0,2.2,1.050*
2018-08-02 01:21:00,-3.375E-01,4C000000*,-703.0,963.788,90,27.5,45.1,0.407,735.7,2.2,1.050*
2018-08-02 01:22:00,-3.429E-01,4C000000*,-702.6,964.192,89,27.4,44.9,0.406,736.0,2.2,1.050*
2018-08-02 01:23:00,-2.890E-01,4C000000*,-703.4,963.384,88,27.5,44.9,0.407,736.0,2.2,1.050*
2018-08-02 01:24:00,-2.832E-01,4C000000*,-703.0,964.597,90,27.5,45.1,0.407,735.7,2.2,1.050*
2018-08-02 01:25:00,-3.028E-01,4C000000*,-703.0,965.001,91,27.4,44.9,0.407,736.0,2.2,1.050*
2018-08-02 01:26:00,-2.991E-01,4C000000*,-703.0,965.001,91,27.4,45.1,0.407,735.7,2.2,1.050*
2018-08-02 01:27:00,-3.955E-01,4C000000*,-703.4,964.192,89,27.4,44.8,0.407,736.0,2.2,1.050*
2018-08-02 01:28:00,-2.477E-01,4C000000*,-702.6,964.192,89,27.4,45.1,0.407,736.0,2.2,1.050*
2018-08-02 01:29:00,-3.073E-01,4C000000*,-703.0,963.788,89,27.4,45.1,0.407,736.0,2.2,1.050*
2018-08-02 01:30:00,-2.599E-01,4C000000*,-703.0,965.405,90,27.2,44.8,0.407,736.0,2.2,1.050*
2018-08-02 01:31:00,-2.462E-01,4C000000*,-703.0,964.597,88,27.2,45.1,0.407,736.0,2.2,1.050*
2018-08-02 01:32:00,-3.858E-01,4C000000*,-702.6,963.788,89,27.2,44.8,0.407,735.7,2.2,1.050*
2018-08-02 01:33:00,-3.537E-01,4C000000*,-703.0,964.192,90,27.2,44.9,0.407,736.0,2.2,1.050*
2018-08-02 01:34:00,-2.927E-01,4C000000*,-703.0,965.405,89,27.2,45.1,0.407,736.0,2.2,1.050*
2018-08-02 01:35:00,-2.687E-01,4C000000*,-703.0,964.597,89,27.1,44.8,0.407,736.0,2.2,1.050*
2018-08-02 01:36:00,-3.024E-01,4C000000*,-702.6,964.597,90,27.2,44.9,0.407,736.0,2.2,1.050*
2018-08-02 01:37:00,-3.252E-01,4C000000*,-702.6,964.597,90,27.0,45.1,0.407,736.0,2.2,1.050*
2018-08-02 01:38:00,-2.918E-01,4C000000*,-702.6,965.405,90,27.1,44.8,0.407,736.0,2.2,1.050*
2018-08-02 01:39:00,-3.274E-01,4C000000*,-702.6,963.788,90,27.1,45.1,0.407,736.0,2.2,1.050*
2018-08-02 01:40:00,-3.475E-01,4C000000*,-703.0,964.597,91,27.0,44.9,0.407,736.0,2.2,1.050*
2018-08-02 01:41:00,-2.983E-01,4C000000*,-702.6,964.597,90,27.0,45.0,0.407,736.0,2.2,1.050*
2018-08-02 01:42:00,-3.236E-01,4C000000*,-702.6,963.788,89,27.0,45.0,0.407,736.0,2.2,1.050*
2018-08-02 01:43:00,-2.956E-01,4C000000*,-703.0,964.597,89,27.0,44.9,0.407,736.0,2.2,1.050*
2018-08-02 01:44:00,-2.809E-01,4C000000*,-702.6,963.788,89,27.0,45.1,0.407,736.0,2.2,1.050*
2018-08-02 01:45:00,-3.273E-01,4C000000*,-702.6,964.192,89,26.9,44.8,0.407,736.0,2.2,1.050*
2018-08-02 01:46:00,-3.475E-01,4C000000*,-703.0,964.192,89,26.9,44.9,0.407,736.0,2.2,1.050*
2018-08-02 01:47:00,-3.300E-01,4C000000*,-703.0,964.597,90,26.9,45.2,0.407,736.0,2.2,1.050*
2018-08-02 01:48:00,-3.709E-01,4C000000*,-702.6,963.384,90,26.9,44.8,0.407,736.0,2.2,1.050*
2018-08-02 01:49:00,-3.412E-01,4C000000*,-703.0,964.192,88,27.0,45.0,0.407,736.0,2.2,1.050*
2018-08-02 01:50:00,-2.698E-01,4C000000*,-703.0,964.192,89,26.9,45.0,0.407,736.0,2.2,1.050*
2018-08-02 01:51:00,-3.077E-01,4C000000*,-702.6,965.001,91,26.8,44.8,0.407,736.0,2.2,1.050*
2018-08-02 01:52:00,-3.538E-01,4C000000*,-702.6,964.192,90,26.9,45.0,0.407,736.0,2.2,1.050*
2018-08-02 01:53:00,-2.898E-01,4C000000*,-703.0,964.192,90,26.9,45.1,0.407,736.0,2.2,1.050*
2018-08-02 01:54:00,-3.035E-01,4C000000*,-703.0,964.597,89,26.8,44.8,0.407,736.3,2.2,1.050*
2018-08-02 01:55:00,-2.430E-01,4C000000*,-702.6,964.192,89,26.9,45.1,0.407,736.0,2.2,1.050*
2018-08-02 01:56:00,-3.006E-01,4C000000*,-703.0,963.788,88,26.8,44.9,0.407,736.0,2.2,1.050*
2018-08-02 01:57:00,-3.219E-01,4C000000*,-702.6,964.192,90,26.7,44.9,0.407,736.0,2.2,1.050*
2018-08-02 01:58:00,-3.349E-01,4C000000*,-702.6,963.788,89,26.7,45.2,0.407,736.0,2.2,1.050*
2018-08-02 01:59:00,-2.807E-01,4C000000*,-702.6,963.788,89,26.7,44.8,0.407,736.0,2.2,1.050*
2018-08-02 02:00:00,-2.426E-01,4C000000*,-703.0,965.001,89,26.7,45.0,0.407,736.0,2.2,1.050*
2018-08-02 02:01:00,-2.155E-01,4C000000*,-702.6,965.809,90,26.7,45.0,0.407,736.0,2.2,1.050*
2018-08-02 02:02:00,-2.486E-01,4C000000*,-702.6,965.001,90,26.7,44.8,0.407,736.3,2.2,1.050*
2018-08-02 02:03:00,-2.880E-01,4C000000*,-703.0,964.192,91,26.7,45.0,0.407,736.3,2.2,1.050*
2018-08-02 02:04:00,-3.555E-01,4C000000*,-703.0,964.597,90,26.8,45.0,0.407,736.0,2.2,1.050*
2018-08-02 02:05:00,-2.600E-01,4C000000*,-703.4,965.001,90,26.7,44.8,0.407,736.0,2.2,1.050*
2018-08-02 02:06:00,-3.187E-01,4C000000*,-702.6,963.384,88,26.7,45.1,0.407,736.3,2.2,1.050*
2018-08-02 02:07:00,-2.776E-01,4C000000*,-703.0,965.405,90,26.7,44.8,0.407,736.3,2.2,1.050*
2018-08-02 02:08:00,-3.681E-01,4C000000*,-702.6,965.405,90,26.8,44.9,0.407,736.3,2.2,1.050*
2018-08-02 02:09:00,-2.700E-01,4C000000*,-703.0,965.001,90,26.9,45.2,0.407,736.0,2.2,1.050*
2018-08-02 02:10:00,-3.309E-01,4C000000*,-702.6,963.788,89,26.8,44.7,0.407,736.3,2.2,1.050*
2018-08-02 02:11:00,-3.049E-01,4C000000*,-702.3,963.788,91,26.9,44.9,0.407,736.3,2.2,1.050*
2018-08-02 02:12:00,-3.405E-01,4C000000*,-702.6,965.001,90,26.9,45.1,0.407,736.3,2.2,1.050*
2018-08-02 02:13:00,-3.344E-01,4C000000*,-703.0,965.001,89,26.8,44.8,0.407,736.3,2.2,1.050*
2018-08-02 02:14:00,-3.135E-01,4C000000*,-703.0,963.788,90,26.9,45.0,0.407,736.3,2.2,1.050*
2018-08-02 02:15:00,-2.734E-01,4C000000*,-703.0,964.192,90,26.8,45.0,0.407,736.3,2.2,1.050*
2018-08-02 02:16:00,-3.890E-01,4C000000*,-703.0,965.001,89,26.8,44.8,0.407,736.3,2.2,1.050*
2018-08-02 02:17:00,-3.399E-01,4C000000*,-703.0,964.597,90,26.9,45.1,0.407,736.3,2.2,1.050*
2018-08-02 02:18:00,-3.610E-01,4C000000*,-703.0,963.788,90,26.9,44.9,0.407,736.3,2.2,1.050*
2018-08-02 02:19:00,-2.841E-01,4C000000*,-702.6,964.192,90,26.9,44.9,0.407,736.3,2.2,1.050*
2018-08-02 02:20:00,-2.760E-01,4C000000*,-703.0,964.192,91,27.0,45.2,0.407,736.3,2.2,1.050*
2018-08-02 02:21:00,-2.818E-01,4C000000*,-703.0,965.405,89,27.0,44.8,0.407,736.0,2.2,1.050*
2018-08-02 02:22:00,-3.083E-01,4C000000*,-702.6,965.001,90,27.0,44.9,0.407,736.3,2.2,1.050*
2018-08-02 02:23:00,-2.750E-01,4C000000*,-702.6,964.192,90,27.0,45.0,0.407,736.0,2.2,1.050*
2018-08-02 02:24:00,-3.231E-01,4C000000*,-702.6,964.597,90,27.0,44.8,0.407,736.3,2.2,1.050*
2018-08-02 02:25:00,-3.375E-01,4C000000*,-703.0,963.788,90,27.0,45.0,0.407,736.3,2.2,1.050*
2018-08-02 02:26:00,-3.493E-01,4C000000*,-703.0,964.597,89,27.0,45.0,0.407,736.3,2.2,1.050*
2018-08-02 02:27:00,-3.538E-01,4C000000*,-703.0,963.788,87,27.0,44.8,0.407,736.3,2.2,1.050*
2018-08-02 02:28:00,-3.228E-01,4C000000*,-703.0,964.192,90,27.0,45.1,0.407,736.3,2.2,1.050*
2018-08-02 02:29:00,-3.191E-01,4C000000*,-703.0,964.192,89,27.0,44.9,0.407,736.3,2.2,1.050*
2018-08-02 02:30:00,-3.157E-01,4C000000*,-703.0,964.597,89,27.0,44.9,0.407,736.3,2.2,1.050*
2018-08-02 02:31:00,-2.732E-01,4C000000*,-703.0,964.597,90,27.0,45.1,0.407,736.3,2.2,1.050*
2018-08-02 02:32:00,-2.464E-01,4C000000*,-702.6,963.384,89,27.1,44.8,0.407,736.3,2.2,1.050*
2018-08-02 02:33:00,-3.223E-01,4C000000*,-702.6,964.597,89,27.1,45.0,0.407,736.3,2.2,1.050*
2018-08-02 02:34:00,-2.588E-01,4C000000*,-703.0,963.788,90,27.0,44.9,0.407,736.0,2.2,1.050*
2018-08-02 02:35:00,-2.530E-01,4C000000*,-703.0,962.979,88,27.1,44.9,0.407,736.3,2.2,1.050*
2018-08-02 02:36:00,-2.820E-01,4C000000*,-702.6,964.192,89,27.1,45.1,0.407,736.3,2.2,1.050*
2018-08-02 02:37:00,-3.682E-01,4C000000*,-702.6,964.597,90,27.1,44.8,0.407,736.3,2.2,1.050*
2018-08-02 02:38:00,-2.557E-01,4C000000*,-702.6,964.192,90,27.2,45.1,0.407,736.3,2.2,1.050*
2018-08-02 02:39:00,-3.228E-01,4C000000*,-702.6,965.001,89,27.1,45.0,0.407,736.3,2.2,1.050*
2018-08-02 02:40:00,-2.579E-01,4C000000*,-702.6,963.788,90,27.1,44.9,0.407,736.3,2.2,1.050*
2018-08-02 02:41:00,-2.686E-01,4C000000*,-703.0,964.597,90,27.1,45.1,0.407,736.3,2.2,1.050*
2018-08-02 02:42:00,-2.881E-01,4C000000*,-702.6,963.788,89,27.1,44.8,0.407,736.3,2.2,1.050*
2018-08-02 02:43:00,-3.396E-01,4C000000*,-703.0,963.788,91,27.1,45.2,0.407,736.3,2.2,1.050*
2018-08-02 02:44:00,-3.197E-01,4C000000*,-702.6,963.788,89,27.1,44.8,0.407,736.3,2.2,1.050*
2018-08-02 02:45:00,-3.143E-01,4C000000*,-703.0,965.001,89,27.2,45.0,0.407,736.3,2.2,1.050*
2018-08-02 02:46:00,-2.514E-01,4C000000*,-702.6,963.384,89,27.2,45.0,0.407,736.3,2.2,1.050*
2018-08-02 02:47:00,-2.808E-01,4C000000*,-702.6,964.192,89,27.2,44.9,0.407,736.3,2.2,1.050*
2018-08-02 02:48:00,-1.751E-01,4C000000*,-702.6,963.788,89,27.2,45.0,0.407,736.3,2.2,1.050*
2018-08-02 02:49:00,-2.171E-01,4C000000*,-703.0,962.575,90,27.2,44.8,0.407,736.3,2.2,1.050*
2018-08-02 02:50:00,-3.805E-01,4C000000*,-702.6,964.192,90,27.2,45.2,0.407,736.3,2.2,1.050*
2018-08-02 02:51:00,-2.508E-01,4C000000*,-703.0,963.788,90,27.2,44.8,0.407,736.3,2.2,1.050*
2018-08-02 02:52:00,-2.349E-01,4C000000*,-703.0,964.192,89,27.3,45.1,0.407,736.3,2.2,1.050*
2018-08-02 02:53:00,-1.827E-01,4C000000*,-703.0,965.001,90,27.3,44.9,0.407,736.3,2.2,1.050*
2018-08-02 02:54:00,-2.681E-01,4C000000*,-702.6,964.597,89,27.2,45.0,0.407,736.6,2.2,1.050*
2018-08-02 02:55:00,-2.917E-01,4C000000*,-702.6,963.384,89,27.2,45.1,0.407,736.3,2.2,1.050*
2018-08-02 02:56:00,-3.436E-01,4C000000*,-702.6,963.384,90,27.2,44.8,0.407,736.3,2.2,1.050*
2018-08-02 02:57:00,-3.372E-01,4C000000*,-703.0,964.597,89,27.2,45.1,0.407,736.3,2.2,1.050*
2018-08-02 02:58:00,-2.798E-01,4C000000*,-702.6,964.597,90,27.2,44.9,0.407,736.3,2.2,1.050*
2018-08-02 02:59:00,-2.664E-01,4C000000*,-702.6,963.384,88,27.2,44.9,0.407,736.3,2.2,1.050*
2018-08-02 03:00:00,-2.669E-01,4C000000*,-703.0,964.597,91,27.2,45.2,0.407,736.3,2.2,1.050*
2018-08-02 03:01:00,-3.158E-01,4C000000*,-703.0,965.405,90,27.2,44.8,0.407,736.3,2.2,1.050*
2018-08-02 03:02:00,-3.780E-01,4C000000*,-702.6,962.979,88,27.2,45.1,0.407,736.3,2.2,1.050*
2018-08-02 03:03:00,-3.701E-01,4C000000*,-703.0,962.575,89,27.2,44.8,0.407,736.3,2.2,1.050*
2018-08-02 03:04:00,-2.535E-01,4C000000*,-702.6,964.192,89,27.2,45.1,0.407,736.3,2.2,1.050*
2018-08-02 03:05:00,-3.096E-01,4C000000*,-703.0,964.192,89,27.2,44.9,0.407,736.3,2.2,1.050*
2018-08-02 03:06:00,-2.814E-01,4C000000*,-703.0,963.384,90,27.2,44.9,0.407,736.3,2.2,1.050*
2018-08-02 03:07:00,-2.906E-01,4C000000*,-703.0,963.384,89,27.2,45.2,0.407,736.3,2.2,1.050*
2018-08-02 03:08:00,-3.447E-01,4C000000*,-703.0,963.788,90,27.2,44.8,0.407,736.3,2.2,1.050*
2018-08-02 03:09:00,-3.267E-01,4C000000*,-702.6,962.575,88,27.3,45.0,0.407,736.6,2.2,1.050*
2018-08-02 03:10:00,-3.239E-01,4C000000*,-702.6,963.788,90,27.3,45.0,0.407,736.3,2.2,1.050*
2018-08-02 03:11:00,-2.596E-01,4C000000*,-703.0,963.788,91,27.2,44.8,0.407,736.3,2.2,1.050*
2018-08-02 03:12:00,-2.467E-01,4C000000*,-702.6,962.979,89,27.3,45.1,0.407,736.3,2.2,1.050*
2018-08-02 03:13:00,-3.143E-01,4C000000*,-703.0,965.001,89,27.3,44.9,0.407,736.3,2.2,1.050*
2018-08-02 03:14:00,-3.574E-01,4C000000*,-702.6,963.384,90,27.3,44.8,0.407,736.3,2.2,1.050*
2018-08-02 03:15:00,-3.165E-01,4C000000*,-702.6,964.192,89,27.3,45.1,0.407,736.6,2.2,1.050*
2018-08-02 03:16:00,-3.184E-01,4C000000*,-703.0,962.575,90,27.3,44.8,0.407,736.3,2.2,1.050*
2018-08-02 03:17:00,-3.146E-01,4C000000*,-702.6,964.597,90,27.3,44.9,0.407,736.3,2.2,1.050*
2018-08-02 03:18:00,-2.507E-01,4C000000*,-702.6,961.767,89,27.4,45.1,0.407,736.3,2.2,1.050*
2018-08-02 03:19:00,-2.569E-01,4C000000*,-702.6,963.788,89,27.2,44.9,0.407,736.6,2.2,1.050*
2018-08-02 03:20:00,-2.842E-01,4C000000*,-703.0,962.979,91,27.3,45.1,0.407,736.3,2.2,1.050*
2018-08-02 03:21:00,-3.699E-01,4C000000*,-703.0,963.384,91,27.3,44.9,0.407,736.3,2.2,1.050*
2018-08-02 03:22:00,-2.959E-01,4C000000*,-702.6,964.192,90,27.3,45.1,0.407,736.3,2.2,1.050*
2018-08-02 03:23:00,-2.533E-01,4C000000*,-703.0,963.788,90,27.3,44.8,0.407,736.3,2.2,1.050*
2018-08-02 03:24:00,-3.523E-01,4C000000*,-702.6,963.788,90,27.3,45.0,0.407,736.3,2.2,1.050*
2018-08-02 03:25:00,-3.130E-01,4C000000*,-703.0,963.788,89,27.3,45.0,0.407,736.3,2.2,1.050*
2018-08-02 03:26:00,-2.357E-01,4C000000*,-702.6,962.575,90,27.4,44.9,0.407,736.3,2.2,1.050*
2018-08-02 03:27:00,-2.643E-01,4C000000*,-703.0,964.192,91,27.3,45.1,0.407,736.3,2.2,1.050*
2018-08-02 03:28:00,-3.738E-01,4C000000*,-702.6,964.597,91,27.3,44.8,0.407,736.3,2.2,1.050*
2018-08-02 03:29:00,-2.341E-01,4C000000*,-703.0,964.192,90,27.3,45.1,0.407,736.3,2.2,1.050*
2018-08-02 03:30:00,-3.607E-01,4C000000*,-703.0,963.788,90,27.3,44.9,0.407,736.6,2.2,1.050*
2018-08-02 03:31:00,-2.569E-01,4C000000*,-703.0,962.575,89,27.3,45.1,0.407,736.3,2.2,1.050*
2018-08-02 03:32:00,-2.753E-01,4C000000*,-702.6,963.788,88,27.3,44.9,0.407,736.3,2.2,1.050*
2018-08-02 03:33:00,-2.773E-01,4C000000*,-702.6,963.384,90,27.3,44.9,0.407,736.6,2.2,1.050*
2018-08-02 03:34:00,-3.262E-01,4C000000*,-702.6,963.788,90,27.4,45.1,0.407,736.6,2.2,1.050*
2018-08-02 03:35:00,-3.963E-01,4C000000*,-703.0,963.788,89,27.3,44.9,0.407,736.6,2.2,1.050*
2018-08-02 03:36:00,-2.567E-01,4C000000*,-702.6,963.788,90,27.4,45.1,0.407,736.3,2.2,1.050*
2018-08-02 03:37:00,-2.881E-01,4C000000*,-702.6,962.979,89,27.3,44.8,0.407,736.3,2.2,1.050*
2018-08-02 03:38:00,-3.803E-01,4C000000*,-703.0,964.597,88,27.4,45.0,0.407,736.6,2.2,1.050*
2018-08-02 03:39:00,-3.382E-01,4C000000*,-703.0,963.384,91,27.3,44.9,0.407,736.6,2.2,1.050*
2018-08-02 03:40:00,-2.679E-01,4C000000*,-702.6,963.384,90,27.4,45.0,0.407,736.6,2.2,1.050*
2018-08-02 03:41:00,-2.583E-01,4C000000*,-702.6,963.788,91,27.3,45.1,0.407,736.6,2.2,1.050*
2018-08-02 03:42:00,-2.762E-01,4C000000*,-703.0,963.788,90,27.3,44.9,0.407,736.6,2.2,1.050*
2018-08-02 03:43:00,-2.409E-01,4C000000*,-702.6,963.384,89,27.4,45.1,0.407,736.3,2.2,1.050*
2018-08-02 03:44:00,-3.454E-01,4C000000*,-703.0,963.384,90,27.4,44.8,0.407,736.6,2.2,1.050*
2018-08-02 03:45:00,-2.597E-01,4C000000*,-702.6,963.788,90,27.4,44.9,0.407,736.6,2.2,1.050*
2018-08-02 03:46:00,-3.470E-01,4C000000*,-702.6,964.597,91,27.4,45.2,0.407,736.3,2.2,1.050*
2018-08-02 03:47:00,-3.348E-01,4C000000*,-703.0,962.575,89,27.3,44.7,0.407,736.3,2.2,1.050*
2018-08-02 03:48:00,-4.188E-01,4C000000*,-702.6,964.597,90,27.4,44.9,0.407,736.3,2.2,1.050*
2018-08-02 03:49:00,-3.260E-01,4C000000*,-703.0,964.192,90,27.4,45.1,0.407,736.6,2.2,1.050*
2018-08-02 03:50:00,-3.109E-01,4C000000*,-702.6,963.384,90,27.4,44.8,0.407,736.6,2.2,1.050*
2018-08-02 03:51:00,-3.033E-01,4C000000*,-702.6,962.979,90,27.4,45.0,0.407,736.6,2.2,1.050*
2018-08-02 03:52:00,-3.104E-01,4C000000*,-703.0,963.384,89,27.4,45.0,0.407,736.3,2.2,1.050*
2018-08-02 03:53:00,-2.942E-01,4C000000*,-702.6,965.405,89,27.4,44.8,0.407,736.6,2.2,1.050*
2018-08-02 03:54:00,-2.223E-01,4C000000*,-703.0,962.575,90,27.4,45.1,0.407,736.6,2.2,1.050*
2018-08-02 03:55:00,-2.975E-01,4C000000*,-702.6,963.788,90,27.4,44.8,0.407,736.6,2.2,1.050*
2018-08-02 03:56:00,-3.652E-01,4C000000*,-702.6,964.597,89,27.4,45.1,0.407,736.6,2.2,1.050*
2018-08-02 03:57:00,-3.067E-01,4C000000*,-702.6,963.384,90,27.4,45.0,0.407,736.6,2.2,1.050*
2018-08-02 03:58:00,-2.489E-01,4C000000*,-703.0,963.788,89,27.4,44.8,0.407,736.6,2.2,1.050*
2018-08-02 03:59:00,-2.988E-01,4C000000*,-703.0,963.788,90,27.4,45.2,0.407,736.6,2.2,1.050*
2018-08-02 04:00:00,-3.138E-01,4C000000*,-702.6,963.788,89,27.4,44.8,0.407,736.6,2.2,1.050*
2018-08-02 04:01:00,-2.941E-01,4C000000*,-703.0,963.384,89,27.4,45.0,0.407,736.6,2.2,1.050*
2018-08-02 04:02:00,-3.120E-01,4C000000*,-702.6,964.192,90,27.5,45.0,0.408,736.6,2.2,1.050*
2018-08-02 04:03:00,-2.601E-01,4C000000*,-703.0,963.788,90,27.4,44.8,0.407,736.6,2.2,1.050*
2018-08-02 04:04:00,-3.494E-01,4C000000*,-702.6,963.788,90,27.4,45.1,0.408,736.6,2.2,1.050*
2018-08-02 04:05:00,-3.686E-01,4C000000*,-702.6,964.597,92,27.4,44.9,0.407,736.6,2.2,1.050*
2018-08-02 04:06:00,-1.976E-01,4C000000*,-703.0,963.384,90,27.4,44.9,0.408,736.6,2.2,1.050*
2018-08-02 04:07:00,-3.433E-01,4C000000*,-703.4,963.384,90,27.5,45.0,0.407,736.6,2.2,1.050*
2018-08-02 04:08:00,-2.635E-01,4C000000*,-703.0,964.192,90,27.5,44.8,0.407,736.6,2.2,1.050*
2018-08-02 04:09:00,-2.451E-01,4C000000*,-703.0,963.788,89,27.5,45.2,0.407,736.6,2.2,1.050*
2018-08-02 04:10:00,-2.530E-01,4C000000*,-702.6,963.788,90,27.5,44.8,0.407,736.6,2.2,1.050*
2018-08-02 04:11:00,-3.638E-01,4C000000*,-703.0,963.788,90,27.4,45.0,0.408,736.6,2.2,1.050*
2018-08-02 04:12:00,-3.389E-01,4C000000*,-702.3,963.384,89,27.4,45.0,0.407,736.6,2.2,1.050*
2018-08-02 04:13:00,-2.566E-01,4C000000*,-703.0,962.575,90,27.5,44.8,0.407,736.6,2.2,1.050*
2018-08-02 04:14:00,-3.233E-01,4C000000*,-703.0,963.788,90,27.4,45.1,0.407,736.6,2.2,1.050*